Location: ??????
(55.2000°N, 38.3000°E)
Time: 01:48:39
(UTC+00:00)

ACS3 Solar Sail - Pass Details

Date: 15 November 2025
Orbit: 888 x 1001 km, 97.3° (Epoch: 12 December)

Event Time Altitude Azimuth Distance (km) Brightness Sun altitude
Rises 03:54:50 0° 8° (N) 3,535 4.6 -9.2°
Reaches altitude 10° 03:59:25 10° 334° (NNW) 2,613 3.6 -8.5°
Maximum altitude 04:00:48 11° 320° (NW) 2,556 3.5 -8.4°
Drops below altitude 10° 04:02:11 10° 307° (NW) 2,628 3.4 -8.2°
Enters shadow 04:02:45 - 301° (WNW) 2,693 3.5 -8.1°
